RH
10 4 3 3 4 7 9 8 6 6 8 13 16 19 28 36 43 46 42 34 25 18 14 13 12 12 12 12 14 16 17 17 16 15 15 13 10 7 6 6 6 6 8 11 11 11 10 10 10 11 13 14 13 12 15 18 18 20 22 29 33 29
7 4 4 4 6 8 10 8 6 8 13 20 23 28 34 39 44 44 41 36 27 20 15 13 12 12 12 12 14 17 18 18 17 16 14 12 10 8 7 7 7 9 11 14 15 15 15 15 16 16 16 15 14 14 15 16 17 20 20 23 27 25
5 4 4 5 8 11 11 9 8 12 19 26 30 33 38 41 43 41 39 36 28 21 17 15 13 12 12 12 14 16 18 18 19 19 17 16 14 12 13 12 12 16 18 17 17 17 18 20 21 20 18 18 18 17 16 17 17 18 17 16 20 19
4 4 4 7 12 15 12 9 11 18 24 29 34 38 41 42 40 40 40 36 30 23 18 16 13 12 12 13 14 16 19 18 18 19 18 17 16 15 17 17 19 24 24 21 20 19 17 17 18 16 14 14 13 13 12 12 12 12 10 9 16 19
4 4 6 12 18 19 15 11 12 19 27 32 37 40 41 39 39 42 42 36 31 25 21 18 14 12 13 14 15 17 19 18 16 16 14 12 11 10 11 13 18 22 21 20 20 19 15 11 10 10 13 11 6 7 6 5 6 6 5 3 11 16
4 6 10 17 23 23 17 13 14 19 27 34 38 39 38 36 38 42 41 36 32 27 23 19 16 14 16 18 18 17 17 16 17 15 13 11 9 8 8 8 10 13 13 13 13 12 11 8 7 8 11 10 6 9 9 7 9 9 9 7 7 7
5 8 14 22 27 26 20 15 15 19 26 32 33 35 34 32 35 38 37 35 32 28 24 19 18 17 18 20 16 14 16 16 17 16 14 12 8 8 8 6 6 6 7 6 6 6 6 7 7 6 7 7 8 10 9 10 13 12 12 13 12 11
6 11 18 25 29 28 23 17 15 17 21 24 27 30 29 28 32 34 34 34 32 28 23 19 20 21 21 18 13 12 15 16 17 17 15 12 9 7 5 5 4 4 4 3 4 4 4 5 5 4 4 6 9 8 5 6 9 9 9 11 13 16
7 15 22 25 28 29 27 22 18 17 19 21 25 26 25 26 28 29 31 33 30 25 21 20 22 23 20 15 11 12 14 17 18 17 16 13 9 7 4 4 4 3 4 3 4 3 3 3 3 3 3 4 5 5 5 4 6 7 7 8 7 8
11 19 25 25 29 32 33 30 24 23 23 23 23 23 24 24 26 27 29 29 27 25 24 23 23 21 15 11 10 12 15 17 18 18 16 14 10 7 5 4 4 4 4 3 3 3 3 3 3 2 3 3 3 4 6 7 5 5 5 5 5 4
15 24 26 28 35 39 39 36 31 27 25 23 23 21 21 22 26 28 28 29 30 30 28 24 22 18 12 10 11 12 16 17 18 18 16 14 11 7 5 4 4 4 3 3 3 3 3 3 3 3 3 3 3 3 5 6 5 4 4 4 4 5
18 26 29 32 40 45 44 40 34 28 24 22 20 19 21 23 27 27 27 33 34 29 26 23 19 15 11 9 11 13 16 18 19 19 17 14 10 7 5 4 4 4 3 3 3 3 3 3 3 3 3 2 3 3 3 4 3 4 4 3 4 4
23 29 33 37 43 48 48 45 40 35 30 24 19 18 17 19 24 24 26 30 28 24 21 20 17 12 10 9 12 15 17 19 19 19 17 13 9 6 5 4 4 4 3 3 4 3 3 3 3 3 3 3 2 2 3 2 3 4 3 3 4 3
27 34 37 37 40 42 40 38 37 38 36 30 22 16 14 23 28 23 26 28 23 22 20 17 14 9 9 11 13 17 19 20 20 18 16 12 8 6 5 5 4 4 4 3 4 4 3 3 3 3 2 3 2 2 2 2 3 3 4 5 3 4
31 38 38 36 33 29 25 26 34 41 41 35 24 19 23 31 34 27 29 30 21 19 19 14 12 9 9 12 15 19 21 21 20 17 15 11 8 6 5 5 5 4 4 4 4 4 4 3 3 3 2 2 2 2 2 2 3 3 3 5 5 6
29 35 35 33 28 22 23 33 45 46 41 34 26 32 38 34 43 49 40 29 20 17 17 12 10 9 10 14 18 21 22 21 20 17 14 11 7 6 5 5 5 4 4 4 4 4 4 4 3 2 2 2 2 2 2 2 2 3 3 5 8 8
19 27 30 27 25 26 35 45 47 40 33 33 36 49 54 44 55 72 53 28 21 18 15 11 9 10 13 17 21 22 23 21 20 17 14 11 8 6 5 5 5 4 4 4 4 4 4 4 3 3 2 2 2 2 2 2 2 2 4 9 11 14
11 21 26 26 31 36 45 49 44 41 40 45 55 62 65 57 60 74 62 33 21 17 12 10 10 12 16 21 23 23 22 21 19 16 14 11 8 7 5 5 5 5 5 4 4 4 4 4 3 3 2 2 2 2 2 2 2 3 7 10 10 17
10 22 30 36 42 45 53 55 51 54 54 54 62 67 71 69 69 81 71 35 17 15 10 10 12 15 21 23 24 23 21 19 17 14 13 11 9 7 6 5 5 5 5 4 5 4 4 4 4 3 2 2 2 2 3 2 2 4 9 13 12 16
14 26 36 44 49 54 61 61 57 55 55 54 55 62 67 68 77 85 65 30 14 12 10 11 15 19 24 24 23 22 19 17 14 12 10 9 8 7 6 5 5 5 5 5 5 4 4 4 4 3 2 2 2 2 2 2 3 3 8 15 16 14
26 31 39 49 52 58 62 58 56 51 51 52 52 63 66 67 83 76 41 19 13 11 12 14 19 24 25 24 22 20 18 15 13 11 9 8 7 6 6 5 5 5 5 5 4 4 4 4 3 3 2 2 2 2 2 2 3 4 6 10 11 11
41 38 44 52 52 59 60 51 47 44 46 52 60 72 72 77 87 60 22 14 13 11 14 18 24 26 24 23 21 19 17 15 13 11 10 9 8 7 6 6 5 5 5 4 4 4 3 3 3 3 2 2 2 2 3 4 3 3 4 4 5 6
52 52 54 54 55 60 56 44 40 42 48 61 74 76 77 87 79 42 17 15 13 13 18 23 27 25 24 22 20 19 17 15 14 12 11 10 9 8 7 6 5 5 4 4 4 3 3 3 3 3 2 2 3 3 3 4 3 4 3 3 4 4
59 64 61 57 60 58 49 40 42 57 68 76 81 73 75 84 62 28 18 16 14 18 23 27 27 24 23 22 19 18 17 15 14 13 12 10 9 8 7 6 6 5 4 4 3 3 3 3 3 3 3 2 3 3 3 4 4 3 3 4 3 4
66 67 66 66 62 52 47 43 49 73 86 81 75 69 70 70 49 28 20 16 18 24 27 28 27 24 23 21 19 18 17 16 15 14 13 11 9 9 7 6 6 5 5 5 5 4 4 4 3 3 3 3 3 2 4 5 4 3 4 4 3 4
77 72 70 72 66 53 48 50 58 74 83 79 77 78 74 61 44 28 20 21 26 28 30 29 25 24 22 20 19 18 18 18 17 17 15 14 13 12 11 10 10 9 9 8 8 7 6 5 4 4 3 3 3 3 3 4 4 4 5 4 4 5
81 78 76 75 68 54 45 54 68 74 81 87 88 85 74 52 35 27 24 29 32 32 31 28 26 24 21 20 20 19 20 19 20 20 19 19 18 18 17 16 16 15 14 13 12 10 9 8 6 5 4 4 4 3 3 3 3 4 5 5 6 7
80 82 82 77 68 56 53 67 76 80 91 90 83 82 68 43 30 30 32 35 35 33 30 27 26 24 22 22 21 21 21 21 22 22 22 22 21 21 20 20 19 19 18 18 17 15 14 13 10 8 7 5 5 4 4 4 4 4 4 4 6 6
80 82 81 74 65 59 70 84 83 86 90 79 77 81 61 40 38 39 39 39 35 31 29 27 26 24 23 22 22 23 22 22 23 22 22 22 22 22 21 21 21 20 21 20 20 19 17 16 14 12 10 8 7 6 6 6 5 5 5 5 6 6
82 81 76 70 61 60 73 83 83 86 81 73 81 77 53 47 53 49 43 39 34 30 29 28 26 25 24 23 23 23 22 23 23 22 22 22 22 23 22 23 23 22 22 21 21 21 20 18 16 14 13 11 9 8 7 7 7 7 7 8 7 6
85 79 71 65 61 63 70 71 74 80 72 73 81 66 52 59 61 53 45 37 32 31 30 28 26 25 24 24 23 22 22 22 22 22 22 22 23 24 24 25 25 24 24 23 22 22 21 19 17 16 14 13 11 10 10 9 10 10 10 10 9 7
80 78 72 65 65 70 72 67 68 71 66 69 67 53 53 62 58 50 43 37 34 32 30 28 26 25 24 23 23 22 22 21 21 21 20 22 23 24 26 27 27 27 26 25 24 23 22 20 18 17 15 15 13 13 13 13 12 13 12 11 11 9
76 80 75 69 69 74 74 70 68 67 67 67 59 53 60 63 54 47 40 37 35 31 29 27 25 25 23 23 23 21 22 21 22 22 22 24 25 26 28 28 28 28 27 26 24 23 22 20 19 18 16 16 16 15 15 15 14 13 13 12 11 10
80 82 80 77 75 76 77 75 69 66 68 68 64 64 66 58 48 41 36 34 32 29 28 27 25 25 23 24 24 23 25 25 26 27 27 28 28 29 29 29 29 29 28 26 25 23 22 21 20 19 18 17 17 17 16 15 15 14 13 13 11 10
77 79 81 80 76 78 77 69 64 65 69 67 67 67 59 48 40 35 33 32 31 29 28 27 25 25 25 26 27 28 29 31 31 31 31 31 31 30 30 30 30 30 28 27 25 23 22 21 20 19 19 19 18 17 17 16 15 14 13 12 11 11
71 74 80 79 74 71 63 55 58 63 65 65 67 64 54 43 38 35 33 32 31 30 28 27 27 27 29 30 31 34 34 35 35 34 33 33 32 31 31 32 31 30 29 27 25 23 22 21 20 20 19 19 19 18 17 16 15 13 12 11 10 10
59 64 76 76 67 59 51 51 57 55 56 61 65 62 54 46 41 37 35 33 32 31 29 29 29 30 33 35 36 37 37 37 36 35 34 33 33 33 33 33 32 31 29 27 25 23 22 21 20 20 20 19 19 19 17 16 14 12 11 10 10 9
Wind_Speed
22 21 20 19 18 17 16 16 15 13 11 11 11 11 10 9 9 9 9 10 10 10 11 11 11 11 12 13 14 16 17 18 18 19 19 18 18 17 16 16 15 15 15 15 15 15 16 16 16 16 16 16 17 17 17 17 17 17 17 16 17 18
22 21 19 18 18 17 16 15 14 12 11 11 12 12 11 10 10 10 10 10 11 11 11 11 11 11 12 13 14 16 17 18 19 19 19 18 17 17 16 17 16 16 16 15 15 14 15 16 16 16 17 17 18 18 18 19 19 18 18 17 18 19
22 20 18 18 17 17 16 15 14 12 12 12 13 12 12 11 11 11 11 11 11 12 12 11 11 11 11 13 14 16 17 18 18 18 18 18 17 17 16 17 17 17 17 16 16 15 14 15 16 16 16 17 18 19 19 20 20 20 19 19 19 20
21 19 17 17 17 16 15 15 13 13 12 13 13 13 13 13 13 12 11 12 12 12 12 12 11 11 11 12 13 15 17 17 18 18 18 18 17 17 16 17 17 17 17 17 17 16 15 15 16 17 17 17 18 18 19 20 20 21 21 20 20 20
20 18 17 17 16 16 15 15 14 13 13 14 14 14 15 14 13 13 13 13 12 13 13 13 12 11 11 12 13 14 16 17 17 18 17 18 18 17 17 17 17 17 17 18 18 18 17 16 16 17 18 18 18 18 19 19 20 21 21 20 20 21
18 17 17 17 16 16 16 15 15 15 15 16 16 15 16 16 14 14 14 13 13 13 14 13 13 12 12 13 13 14 16 17 17 18 17 17 18 17 17 17 17 17 17 18 19 19 19 19 17 17 17 17 18 18 18 19 19 20 21 21 19 20
17 17 17 17 16 16 16 16 16 16 17 17 17 17 17 17 15 15 14 14 14 14 14 14 13 13 13 13 13 14 16 16 17 18 18 18 18 18 17 17 17 17 17 17 17 18 18 19 19 19 18 18 19 19 20 20 20 20 21 22 21 20
17 18 18 17 17 17 17 17 17 17 18 18 18 18 18 17 16 16 15 14 15 15 15 14 14 14 14 14 14 14 15 16 17 18 18 18 18 17 17 17 17 17 17 17 16 16 17 18 19 20 21 21 21 21 21 22 22 22 23 23 23 21
18 18 18 18 18 18 18 18 18 18 19 19 19 19 19 18 17 16 15 15 15 15 15 15 14 14 14 14 13 14 16 17 18 18 18 18 18 17 17 17 17 17 17 17 17 17 16 17 18 19 21 22 23 23 23 23 24 25 25 26 25 24
18 18 19 19 19 19 19 19 19 19 19 20 20 20 19 18 17 16 16 16 16 16 16 15 15 14 14 14 13 14 16 18 19 19 20 19 18 18 17 17 17 17 17 16 16 16 16 17 18 20 21 22 23 24 25 25 25 26 27 28 29 27
18 19 20 19 20 20 20 19 19 20 20 20 21 20 19 18 17 17 17 16 15 16 16 15 15 14 14 13 13 14 16 18 19 20 21 20 19 18 17 17 17 17 16 15 15 15 16 17 19 20 21 22 23 24 25 26 26 27 28 28 30 31
19 20 20 20 21 21 20 20 20 20 21 22 21 20 19 18 18 17 17 16 16 16 16 15 15 14 13 12 13 14 16 17 18 19 20 19 18 17 16 16 16 17 16 15 15 15 16 18 19 20 21 22 23 24 25 26 27 28 29 29 30 32
21 21 21 21 22 21 21 21 21 22 23 23 22 21 21 20 19 18 17 16 16 16 16 16 15 13 12 12 13 14 16 17 18 19 19 18 17 16 16 16 16 16 16 15 15 16 17 18 20 21 22 22 23 24 25 27 28 30 31 32 32 32
23 23 22 22 22 21 21 22 23 24 24 24 23 23 22 20 18 17 17 17 16 16 15 15 14 13 12 12 13 15 16 17 18 19 18 17 17 16 16 15 16 16 16 15 15 16 17 19 20 21 22 22 23 24 25 27 28 30 32 33 34 34
25 24 23 22 21 21 22 23 23 24 24 24 25 24 21 19 19 18 18 17 16 16 15 14 13 12 12 12 13 15 16 17 18 18 18 17 16 16 16 16 16 16 16 16 16 17 18 19 20 21 22 23 24 25 26 27 28 30 32 34 35 35
26 25 24 22 22 22 23 22 22 22 23 23 24 23 21 20 20 19 17 16 16 15 15 13 12 12 12 13 14 15 16 17 18 18 17 17 16 16 17 17 17 17 17 18 18 18 19 20 21 22 23 23 24 25 26 27 28 29 31 34 35 37
26 24 24 23 23 22 22 21 21 22 22 21 21 21 21 21 19 19 18 16 16 15 14 13 12 11 12 12 14 15 16 17 17 18 17 17 16 16 17 18 18 18 18 19 19 20 21 21 22 23 23 24 25 25 26 27 28 30 32 33 35 37
25 25 24 23 22 22 22 21 20 21 21 20 19 19 20 21 20 18 16 15 14 14 14 12 12 11 12 13 14 15 16 17 17 17 17 17 16 16 17 18 19 19 19 20 20 21 22 23 24 24 25 25 26 25 26 27 29 31 33 34 35 36
25 24 23 22 22 22 22 20 20 20 21 19 19 19 19 19 16 12 11 12 12 13 13 11 11 11 12 13 14 15 16 16 17 17 17 17 17 17 17 18 19 20 21 21 21 22 23 24 25 25 26 26 26 26 27 28 30 32 33 34 35 35
24 23 23 22 22 22 22 20 21 22 22 21 21 21 18 15 12 9 8 11 12 12 12 11 11 12 12 13 14 15 15 16 17 17 17 17 17 17 18 18 19 20 21 23 23 23 23 24 25 26 26 27 27 27 28 29 31 32 33 34 34 35
22 22 22 22 22 23 21 21 22 22 21 22 23 21 18 15 11 9 9 10 12 12 12 11 11 11 12 13 14 14 15 15 16 17 17 17 18 18 18 19 20 21 22 23 24 24 24 25 26 26 26 26 27 28 29 29 31 32 33 34 35 37
21 22 23 22 22 22 21 22 23 23 22 23 23 21 20 17 11 10 10 11 12 12 11 11 11 11 12 12 13 14 14 15 15 16 16 17 18 18 19 20 21 22 22 23 24 25 25 25 26 26 25 25 26 28 30 30 32 33 34 34 35 36
22 23 23 23 23 23 23 23 24 24 24 23 22 20 18 14 11 12 11 11 12 12 12 12 11 12 12 12 12 13 14 14 15 15 16 17 17 18 19 20 21 22 22 24 25 26 26 26 26 26 26 26 26 27 29 30 32 34 35 35 35 36
23 23 23 24 24 23 23 24 24 23 22 21 19 18 16 12 12 13 12 12 12 11 12 12 12 11 11 12 12 13 13 14 14 15 16 16 17 18 19 20 21 22 22 24 25 26 27 27 27 27 27 27 28 28 29 29 31 34 36 36 36 36
26 25 25 25 25 24 23 23 24 22 20 20 18 16 16 16 15 14 13 13 12 12 12 12 11 11 11 12 12 13 13 14 14 15 16 17 18 18 19 21 22 23 23 24 25 27 28 29 29 29 29 29 29 29 30 30 30 32 36 37 37 36
28 28 27 26 25 24 22 22 23 22 18 18 19 16 17 17 15 13 13 12 12 12 12 11 11 11 11 12 12 13 13 14 15 15 16 17 18 19 20 21 22 23 24 25 26 27 28 29 29 30 30 31 32 32 32 32 31 31 33 36 37 36
28 29 28 27 26 24 22 20 20 20 17 17 18 15 14 13 12 12 12 12 12 12 11 11 11 11 12 12 13 13 14 14 15 16 17 18 19 20 21 22 23 24 25 25 26 27 27 28 29 30 31 32 33 34 34 35 35 33 31 33 35 35
26 27 26 28 26 22 19 17 16 16 16 18 14 10 9 10 9 11 12 12 12 11 11 11 11 12 12 13 13 14 14 15 15 16 17 19 20 21 22 23 24 25 26 26 27 27 28 28 29 30 31 32 33 34 34 35 35 35 33 32 33 34
25 25 25 26 24 20 18 16 15 14 15 15 11 7 8 9 9 11 11 11 11 11 11 11 12 13 13 14 14 15 16 16 17 18 19 20 21 23 23 24 24 26 27 27 28 28 29 29 29 30 31 32 33 33 34 35 35 35 35 33 32 32
23 23 24 23 22 20 19 19 17 16 17 15 11 9 9 8 9 10 10 10 11 11 12 13 14 14 14 15 16 16 17 18 18 20 21 22 23 24 24 25 26 27 28 29 29 29 30 30 30 31 31 32 32 33 33 34 34 34 34 34 33 33
21 22 22 21 21 21 20 20 18 17 18 16 13 13 11 9 10 10 10 11 11 12 13 14 15 15 15 16 17 18 18 19 20 21 22 23 24 25 26 27 28 29 30 30 30 30 30 30 31 31 31 32 32 33 33 33 33 33 34 34 33 33
22 23 23 21 21 20 19 19 18 18 18 18 17 15 12 10 10 9 11 12 12 14 14 15 16 16 16 17 17 18 19 20 21 23 24 25 26 26 27 28 30 31 31 31 30 30 30 30 31 31 32 32 32 33 33 33 33 34 34 34 34 33
19 21 22 22 21 19 18 17 17 16 17 19 19 15 12 10 10 11 12 13 14 15 15 16 16 16 16 17 18 19 20 21 22 23 25 26 27 28 29 30 31 32 32 31 30 30 30 30 31 31 32 32 32 33 33 33 33 34 34 35 35 34
16 17 18 20 19 17 16 15 14 14 16 18 16 14 12 11 11 12 14 14 14 15 15 16 16 16 17 17 18 20 21 22 23 25 26 27 28 29 30 32 32 32 31 31 30 30 30 30 31 31 32 32 32 32 33 33 33 34 34 35 35 34
16 15 15 16 16 15 15 15 15 15 16 16 14 13 13 12 12 13 14 14 15 15 16 16 16 16 17 17 19 20 21 23 24 25 27 28 29 30 31 32 33 32 31 31 30 30 30 30 31 31 31 32 32 32 33 33 34 34 34 34 34 34
17 15 14 14 15 15 16 17 16 16 16 15 14 14 13 13 13 14 14 15 15 15 15 16 16 16 17 18 19 21 22 24 25 26 27 29 30 31 32 32 32 32 31 31 30 30 30 30 30 31 31 32 33 33 34 34 35 35 34 34 33 34
17 16 15 16 17 17 18 17 17 17 17 16 15 14 14 13 14 15 15 15 15 15 15 16 16 16 17 19 20 22 23 25 26 27 29 30 31 31 31 32 32 31 31 31 31 30 30 30 30 31 32 32 33 34 35 35 35 35 34 33 33 32
Wind_Direction
290 291 288 287 287 283 278 273 272 271 272 273 273 270 270 276 278 279 284 287 289 291 295 301 305 310 315 323 330 335 336 337 337 338 338 338 340 342 345 348 351 352 354 356 355 355 352 350 351 351 351 349 348 346 345 343 345 342 342 346 339 336
288 287 286 287 285 281 275 270 268 267 267 268 267 267 270 271 271 274 280 284 284 287 293 297 300 305 310 318 324 330 334 335 336 337 338 337 338 339 342 344 346 348 350 353 356 359 358 353 352 353 352 350 348 347 345 343 343 342 341 344 337 332
285 283 284 284 281 277 271 268 265 262 262 263 264 266 268 267 268 273 278 280 282 285 289 292 297 303 307 313 319 326 331 335 336 337 337 336 335 335 338 339 341 344 346 349 353 357 359 355 352 354 352 349 347 346 345 342 342 341 341 343 337 330
280 280 281 279 277 273 268 265 261 258 258 259 260 262 263 265 269 273 276 277 280 283 286 290 294 299 304 307 312 320 327 333 335 336 338 335 332 332 333 336 338 340 342 344 346 348 352 353 350 349 349 348 345 343 343 341 339 338 338 342 338 330
276 277 275 274 272 268 265 262 258 255 254 255 256 258 261 265 268 271 273 275 279 282 285 289 291 296 300 301 306 315 322 330 333 334 336 333 331 331 332 334 336 337 338 340 340 340 343 347 348 347 346 344 343 342 342 340 337 335 335 338 336 329
272 272 270 269 267 265 263 259 256 253 251 252 254 257 261 264 267 268 271 275 279 283 286 288 292 294 295 298 303 311 319 327 330 330 332 331 329 331 332 334 334 334 337 338 338 338 340 343 345 347 345 341 341 341 341 340 338 335 333 334 333 327
266 266 265 264 262 262 260 257 254 253 251 252 255 257 260 262 265 268 271 276 280 283 285 288 291 292 294 299 302 307 316 324 326 328 330 330 329 330 331 333 333 333 336 337 337 339 340 341 342 344 344 343 343 342 342 341 340 338 334 332 332 327
261 262 261 260 259 260 259 256 254 253 253 254 256 257 260 263 266 269 272 276 279 282 285 288 291 292 296 299 301 306 315 320 324 327 328 328 327 328 329 330 332 333 335 336 337 340 341 341 342 343 343 343 342 342 342 342 340 338 336 333 333 330
258 260 259 257 257 259 258 257 256 254 255 255 256 258 261 265 267 270 273 275 277 281 284 287 291 293 295 296 300 307 314 319 323 326 326 325 325 325 327 328 331 333 333 335 337 339 341 341 341 341 341 341 340 340 341 341 339 338 336 333 332 330
257 257 256 255 255 257 257 258 258 256 256 257 258 260 263 266 269 271 272 273 276 280 283 286 289 290 291 295 301 308 314 318 323 325 325 324 324 324 326 327 328 330 331 332 333 335 337 338 338 339 338 338 338 338 338 338 338 337 335 332 329 328
255 254 252 253 254 256 257 257 258 258 259 260 261 263 265 267 268 269 270 272 276 279 281 283 285 286 288 294 302 309 313 318 322 323 322 322 322 323 323 324 325 325 326 327 328 329 331 333 334 334 334 335 335 336 336 335 335 335 332 330 327 325
253 251 249 250 252 254 256 258 259 261 261 262 263 265 265 265 265 266 268 272 276 277 278 279 280 282 287 295 302 309 313 317 320 319 319 320 319 319 320 320 321 321 320 322 324 325 328 329 330 331 331 332 332 333 334 333 333 332 329 327 325 323
251 249 246 248 252 254 257 259 261 261 262 263 265 265 264 263 262 265 268 271 273 274 274 275 277 281 288 295 302 308 313 315 316 317 317 317 316 316 316 317 317 316 316 318 320 323 325 327 327 329 329 329 329 330 331 331 331 329 327 326 324 322
248 246 245 248 252 256 258 260 260 262 263 265 265 264 264 262 261 265 269 269 270 271 271 273 277 283 287 294 302 307 311 313 314 316 316 314 314 314 314 315 313 311 310 310 313 317 321 324 325 326 327 327 326 327 328 328 328 327 325 324 323 322
246 245 246 249 253 257 259 261 264 267 269 270 271 269 265 264 265 263 262 264 267 268 269 273 277 282 288 294 301 305 308 312 314 314 314 312 313 313 312 312 311 308 305 305 307 311 316 321 323 323 324 325 325 326 326 326 325 325 325 324 323 322
247 247 248 250 254 257 261 266 269 270 271 272 275 276 270 268 267 261 258 262 265 267 270 273 276 280 288 295 300 305 309 312 313 312 312 312 312 312 311 310 309 306 304 304 306 309 314 318 321 322 322 324 324 325 325 324 324 324 325 324 324 322
248 248 248 249 253 259 264 267 267 268 269 270 273 272 268 271 270 263 261 261 261 265 268 269 273 280 288 296 301 305 310 311 312 311 311 311 311 311 311 310 309 306 305 304 305 308 312 317 319 320 321 322 324 325 324 324 324 325 326 326 325 324
249 248 247 249 255 260 261 262 264 267 268 271 271 265 267 275 271 260 255 254 258 263 263 266 274 283 290 296 302 306 309 311 310 309 309 309 309 309 310 311 310 308 306 303 304 307 311 315 318 319 321 322 323 324 323 324 325 326 327 328 328 327
250 248 248 253 256 257 258 261 263 266 269 271 268 265 271 275 264 247 247 255 259 261 263 271 279 285 293 298 303 307 309 309 308 308 308 309 309 310 310 310 310 308 306 305 305 307 311 314 316 317 318 320 321 322 322 323 325 327 328 329 329 329
249 248 250 254 254 255 258 261 264 268 271 271 268 267 270 267 250 236 254 262 259 261 267 274 281 289 296 301 305 308 310 310 310 311 311 311 311 310 311 310 309 309 308 308 308 309 311 312 313 314 316 317 319 321 322 324 326 328 329 329 330 330
249 248 250 251 252 254 257 260 264 267 269 268 267 266 265 258 246 244 260 263 259 264 270 276 284 292 298 304 309 311 313 313 313 314 314 313 312 311 311 311 310 309 308 308 308 309 310 310 311 312 313 315 318 320 321 325 328 329 330 330 330 331
248 247 248 249 251 254 257 260 263 264 265 264 261 260 258 251 247 259 264 260 261 267 273 280 288 293 300 307 311 313 313 314 315 315 314 313 313 312 312 311 309 309 308 308 308 308 309 310 310 309 309 311 316 320 321 325 328 328 329 329 329 331
243 244 246 248 251 254 258 260 262 264 264 260 255 248 244 241 250 265 263 257 263 269 275 282 288 294 303 308 311 313 314 316 317 316 315 314 313 312 310 309 308 308 309 310 310 310 310 311 310 309 308 309 313 316 319 325 328 327 328 329 329 331
243 245 246 247 250 253 257 261 264 264 258 252 246 232 229 249 266 265 260 260 265 271 276 282 289 297 306 310 312 314 316 318 319 318 317 316 314 312 310 309 308 308 309 310 309 310 310 310 310 309 309 310 311 313 316 323 327 327 327 328 329 331
247 246 246 247 249 252 257 261 260 256 246 237 227 222 241 264 267 259 258 263 267 273 278 283 293 302 308 311 313 314 317 319 319 320 319 318 316 314 312 310 309 308 308 308 309 309 310 310 311 311 311 310 310 312 315 319 325 327 326 326 328 330
252 251 249 248 250 252 257 260 257 254 244 231 225 238 259 261 253 252 257 262 268 274 280 288 297 305 309 311 312 313 316 318 319 321 320 319 317 315 314 312 310 310 310 310 310 311 311 311 312 313 313 313 313 314 316 319 323 326 326 326 327 328
255 254 252 250 251 253 256 260 257 251 248 248 242 241 251 246 241 252 258 263 272 278 285 294 301 307 308 309 310 312 314 316 318 319 318 317 316 314 313 312 312 312 312 313 312 312 312 312 313 315 315 316 316 317 319 320 321 323 325 326 326 326
256 254 254 252 250 251 254 255 251 245 250 256 241 212 226 239 243 254 261 269 278 285 293 299 303 305 306 306 307 308 310 313 314 314 314 313 313 312 312 313 313 313 313 313 313 313 314 315 316 317 317 317 317 318 319 320 321 322 324 326 325 325
256 254 256 254 248 245 248 246 242 248 250 237 213 200 233 240 245 258 268 277 284 291 296 300 302 302 303 302 303 305 306 309 310 310 310 310 310 311 312 313 314 314 315 315 315 315 316 317 317 317 318 317 318 318 319 320 321 323 324 325 325 324
258 254 255 253 244 240 243 243 242 245 238 223 219 243 252 245 254 264 272 279 285 292 297 298 299 298 297 297 299 302 304 306 307 307 308 308 309 310 312 313 314 314 315 315 316 316 317 317 318 317 318 318 318 318 320 321 322 322 323 324 325 326
259 255 251 246 241 241 243 247 245 233 226 229 244 256 256 257 263 267 271 278 284 291 295 296 295 293 293 295 298 301 303 304 304 305 306 307 308 310 312 313 314 315 315 315 316 316 317 317 318 318 317 318 318 319 320 321 321 322 322 324 325 326
257 254 250 244 238 240 246 249 241 230 232 245 254 258 258 261 264 267 271 276 282 287 290 289 288 289 291 295 299 301 302 303 303 305 306 307 309 310 312 313 315 315 314 314 314 315 316 317 317 317 317 318 319 319 320 321 322 322 322 323 324 325
253 252 250 244 238 239 243 241 236 238 248 253 256 260 259 260 261 264 268 272 278 281 282 284 285 289 293 297 300 301 303 304 306 308 309 310 311 312 313 315 315 315 314 313 313 314 315 315 315 316 317 318 318 319 320 320 321 321 321 322 322 324
252 252 248 241 239 237 231 230 240 252 257 256 257 258 255 256 257 259 265 269 273 277 280 283 287 291 296 300 303 304 307 309 310 311 312 312 313 314 316 316 316 315 314 313 313 313 314 314 315 315 316 317 317 318 318 319 319 319 319 319 319 321
252 253 247 240 235 229 228 241 258 262 259 257 254 252 249 250 253 257 264 267 272 277 281 286 290 295 300 303 306 309 311 312 313 313 314 314 315 316 317 316 316 315 314 313 313 312 313 313 314 315 315 316 316 316 316 316 317 317 317 317 317 317
248 249 244 235 229 234 247 259 265 264 262 259 252 249 249 249 255 259 264 269 275 281 285 290 294 298 303 307 310 312 313 314 315 315 316 317 317 317 316 316 315 314 313 312 312 311 312 312 313 314 314 315 315 315 314 314 314 315 315 315 315 316
247 247 241 237 240 254 264 265 263 262 260 257 251 249 250 252 258 262 267 274 280 285 289 293 297 301 306 310 313 315 315 315 316 316 317 317 317 316 316 315 314 313 312 311 310 310 311 312 312 313 313 313 313 313 312 313 313 313 313 314 314 314